GW2364 Weather Reports


Display with metric or nautical units.
time (UTC)temp
F
wind
direction
speed
MPH
gust
MPH
rain 1hr
in
rain 24hr
in
rain mn
in
humidity
%
barometer
mb
20260903143005 84 225 4.0 13.0 0.00 0.00 0.00 76 1011.3
20260903141505 83 227 6.0 11.0 0.00 0.00 0.00 79 1011.3
20260903140006 82 244 4.0 10.0 0.00 0.00 0.00 81 1011.4
20260903134507 82 243 4.0 8.0 0.00 0.00 0.00 82 1011.4
20260903133003 81 244 3.0 10.0 0.00 0.00 0.00 83 1011.4
20260903131504 81 235 3.0 7.0 0.00 0.00 0.00 84 1011.4
20260903130005 80 258 1.0 7.0 0.00 0.00 0.00 85 1011.4
20260903124503 80 256 2.0 8.0 0.00 0.00 0.00 86 1011.2
20260903123005 79 243 2.0 8.0 0.00 0.00 0.00 86 1011.1
20260903121503 79 231 1.0 5.0 0.00 0.00 0.00 87 1011.1
20260903120006 79 209 2.0 8.0 0.00 0.00 0.00 87 1010.9
20260903114503 79 225 1.0 6.0 0.00 0.00 0.00 88 1011.0
20260903113003 79 221 0.0 4.0 0.00 0.00 0.00 88 1010.8
20260903111503 79 232 1.0 4.0 0.00 0.00 0.00 88 1010.8
20260903110005 79 219 0.0 6.0 0.00 0.00 0.00 88 1010.8
20260903104504 79 171 0.0 5.0 0.00 0.00 0.00 88 1010.7
20260903103005 79 155 0.0 4.0 0.00 0.00 0.00 88 1010.6
20260903101506 79 274 1.0 3.0 0.00 0.00 0.00 87 1010.7
20260903100005 79 170 0.0 3.0 0.00 0.00 0.00 87 1010.6
20260903094502 79 292 0.0 4.0 0.00 0.00 0.00 87 1010.7
20260903093004 79 213 0.0 2.0 0.00 0.00 0.00 87 1010.9
20260903091502 79 148 1.0 7.0 0.00 0.00 0.00 87 1010.9
20260903090005 80 195 0.0 2.0 0.00 0.00 0.00 86 1010.9
20260903084504 80 209 1.0 4.0 0.00 0.00 0.00 86 1010.9
20260903083001 80 78 1.0 8.0 0.00 0.00 0.00 85 1011.0
20260903081508 80 53 1.0 6.0 0.00 0.00 0.00 84 1010.9
20260903080006 80 246 2.0 5.0 0.00 0.00 0.00 84 1011.0
20260903074502 80 101 1.0 4.0 0.00 0.00 0.00 83 1011.0
20260903073002 80 116 0.0 4.0 0.00 0.00 0.00 82 1011.1
20260903071503 81 189 0.0 4.0 0.00 0.00 0.00 81 1011.1
20260903070005 81 128 1.0 5.0 0.00 0.00 0.00 80 1011.2
20260903064502 81 117 1.0 5.0 0.00 0.00 0.00 78 1011.3
20260903063001 82 104 2.0 8.0 0.00 0.00 0.00 77 1011.4
20260903061503 82 23 1.0 9.0 0.00 0.00 0.00 75 1011.4
20260903060007 82 175 1.0 10.0 0.00 0.00 0.00 74 1011.3
20260903054505 83 96 0.0 5.0 0.00 0.00 0.00 72 1011.3
20260903053009 83 107 2.0 7.0 0.00 0.00 0.00 69 1011.1
20260903051504 83 47 4.0 12.0 0.00 0.00 0.00 67 1011.1
20260903050011 83 113 4.0 12.0 0.00 0.00 0.00 67 1011.1
20260903031526 87 83 1.0 5.0 0.00 0.00 0.00 61 1010.6
20260903030015 88 84 2.0 6.0 0.00 0.00 0.00 59 1010.2
20260903024507 88 56 2.0 5.0 0.00 0.00 0.00 57 1009.9
20260903023009 88 17 2.0 7.0 0.00 0.00 0.00 57 1009.7
20260903021517 88 80 0.0 2.0 0.00 0.00 0.00 56 1009.3
20260903020007 89 80 1.0 2.0 0.00 0.00 0.00 55 1009.1
20260903014504 90 76 0.0 2.0 0.00 0.00 0.00 53 1008.9
20260903013011 91 72 1.0 3.0 0.00 0.00 0.00 52 1008.8
20260903011505 91 61 1.0 3.0 0.00 0.00 0.00 51 1008.9
20260903010006 92 51 2.0 5.0 0.00 0.00 0.00 50 1008.7
20260903004504 93 49 1.0 5.0 0.00 0.00 0.00 49 1008.8
20260903003005 94 74 4.0 11.0 0.00 0.00 0.00 46 1008.8
20260903001506 97 213 0.0 3.0 0.00 0.00 0.00 42 1008.8
20260903000006 98 246 0.0 5.0 0.00 0.00 0.00 41 1008.7
20260902234504 99 235 1.0 4.0 0.00 0.00 0.00 40 1008.7
20260902233013 99 252 2.0 8.0 0.00 0.00 0.00 40 1008.8
20260902231505 100 84 0.0 7.0 0.00 0.00 0.00 38 1008.7
20260902230006 100 215 2.0 6.0 0.00 0.00 0.00 38 1008.6
20260902224506 100 258 1.0 8.0 0.00 0.00 0.00 39 1008.7
20260902223005 102 157 1.0 7.0 0.00 0.00 0.00 37 1008.7
20260902221504 101 180 2.0 7.0 0.00 0.00 0.00 37 1008.8
20260902220008 101 259 4.0 9.0 0.00 0.00 0.00 38 1008.9
20260902214509 100 232 1.0 7.0 0.00 0.00 0.00 40 1009.1
20260902213006 98 227 3.0 8.0 0.00 0.00 0.00 41 1009.2
20260902211504 98 132 3.0 12.0 0.00 0.00 0.00 41 1009.2
20260902210006 99 234 2.0 7.0 0.00 0.00 0.00 40 1009.3
20260902204504 100 105 1.0 7.0 0.00 0.00 0.00 40 1009.5
20260902203004 101 210 2.0 11.0 0.00 0.00 0.00 38 1009.6
20260902201509 102 90 2.0 7.0 0.00 0.00 0.00 40 1009.9
20260902200006 99 235 3.0 8.0 0.00 0.00 0.00 41 1010.0
20260902194504 98 36 1.0 4.0 0.00 0.00 0.00 43 1010.4
20260902193005 99 45 1.0 4.0 0.00 0.00 0.00 43 1010.6
20260902191511 98 5 1.0 9.0 0.00 0.00 0.00 42 1010.7
20260902190009 99 36 3.0 7.0 0.00 0.00 0.00 41 1010.9
20260902184503 99 298 0.0 4.0 0.00 0.00 0.00 41 1011.2
20260902183004 99 303 1.0 7.0 0.00 0.00 0.00 42 1011.3
20260902181504 100 241 2.0 7.0 0.00 0.00 0.00 41 1011.7
20260902180007 99 152 2.0 5.0 0.00 0.00 0.00 42 1012.1
20260902174506 98 184 1.0 8.0 0.00 0.00 0.00 44 1012.4
20260902173004 96 213 0.0 9.0 0.00 0.00 0.00 46 1012.7
20260902171504 96 242 1.0 8.0 0.00 0.00 0.00 47 1012.8
20260902170008 94 262 2.0 5.0 0.00 0.00 0.00 49 1013.0
20260902164510 94 302 2.0 8.0 0.00 0.00 0.00 51 1013.1
20260902163003 93 208 3.0 7.0 0.00 0.00 0.00 52 1013.2
20260902161504 92 314 1.0 7.0 0.00 0.00 0.00 55 1013.2
20260902160009 90 234 4.0 8.0 0.00 0.00 0.00 56 1013.3
20260902154503 90 246 4.0 7.0 0.00 0.00 0.00 58 1013.3
20260902153006 88 238 1.0 4.0 0.00 0.00 0.00 63 1013.4
20260902151503 86 229 1.0 8.0 0.00 0.00 0.00 67 1013.4
20260902150008 84 279 2.0 7.0 0.00 0.00 0.00 69 1013.3
20260902144503 83 261 2.0 6.0 0.00 0.00 0.00 72 1013.3